Farrell Flat Airport

Jump to: basic info | weather | frequencies | runways | comments

Related pages: nearby airports | nearby navaids | notams | map

Basic information (top)

Codes: YFFT
Location: lon -33.833302, lat 138.766998
Status: small_airport

Weather (top)

Current conditions for Adelaide International Airport 68nm (125km) S (rec'd 2015/01/28 15:00Z):

YPAD 281500Z 15011KT CAVOK 18/14 Q1015 FM1500 MOD TURB BLW 5000FT

Airport forecast for Adelaide International Airport 68nm (125km) S (rec'd 2015/01/28 12:30Z):

TAF YPAD 281115Z 2812/2918 16014KT CAVOK 
     FM281700 11012KT CAVOK 
     FM290100 16015KT CAVOK 
     FM291400 13013KT CAVOK

Frequencies (top)

Verify before use: may be inaccurate or out of date.

CTAF: 122.4 MHz (CTAF)
MISC: 114.2 MHz (MISC)
MISC: 119.8 MHz (MISC)
MISC: 121.3 MHz (MISC)

Runways (top)

03/21: 1,443 ft (440 m) — grass — not lighted

14/32: 2,486 ft (758 m) — grass — not lighted

Latest comments (top)

No comments yet for Farrell Flat Airport

More... (top)

See also NOTAMs and nearby airports and navaids, or visit the Farrell Flat Airport page at the main OurAirports website..